Location: Columbia
(38.9520°N, 92.3340°W)
Time: 19:43:39
(UTC-05:00)

CZ-2C R/B - Visible Passes

Search period start: 24 April 2014 00:00
Search period end: 04 May 2014 00:00
Orbit: 705 x 910 km, 98.1° (Epoch: 23 April)

Date Brightness Start Highest point End Pass type
(mag) Time Alt. Az. Time Alt. Az. Time Alt. Az.
24 Apr 4.8 03:59:21 10° SE 04:03:24 29° ENE 04:07:32 10° N visible
24 Apr 3.8 05:39:19 10° SSW 05:43:17 26° W 05:47:19 10° NW visible
25 Apr 5.6 03:36:06 10° ESE 03:39:11 17° ENE 03:42:19 10° NNE visible
25 Apr 3.1 05:14:08 10° S 05:18:41 47° W 05:23:21 10° NNW visible
26 Apr 6.1 03:14:50 10° ENE 03:15:04 10° ENE 03:15:17 10° ENE visible
26 Apr 2.8 04:49:26 10° SSE 04:54:10 85° WSW 04:59:03 10° NNW visible
27 Apr 3.6 04:25:09 10° SSE 04:29:45 54° ENE 04:34:31 10° N visible
28 Apr 4.7 04:01:16 10° SE 04:05:26 31° ENE 04:09:44 10° N visible
28 Apr 3.9 05:41:28 10° SSW 05:45:21 25° W 05:49:21 10° NW visible
29 Apr 5.5 03:37:54 10° ESE 03:41:13 19° ENE 03:44:36 10° NNE visible
29 Apr 3.2 05:16:13 10° S 05:20:44 44° W 05:25:26 10° NNW visible
30 Apr 6.0 03:15:43 10° ENE 03:17:05 11° ENE 03:18:29 10° NE visible
30 Apr 2.8 04:51:28 10° S 04:56:13 79° WSW 05:01:11 10° NNW visible
01 May 3.5 04:27:07 10° SSE 04:31:47 59° ENE 04:36:41 10° N visible
02 May 4.6 04:03:10 10° SE 04:07:28 34° ENE 04:11:56 10° N visible
03 May 5.4 03:39:43 10° ESE 03:43:14 21° ENE 03:46:53 10° NNE visible
03 May 3.3 05:18:17 10° SSW 05:22:48 41° W 05:27:32 10° NNW visible
